Regional Weather Roundup
Issued by NWS State College, PA

Home | Current Version | Previous Version | Graphics & Text | Print | Product List | Glossary Off
Versions: 1 2 3 4 5 6 7 8 9 10 11 12 13 14 15 16 17 18 19 20 21 22 23 24 25 26 27 28 29 30 31 32 33 34 35 36 37 38 39 40 41 42 43 44 45 46 47 48 49 50

000
ASUS41 KCTP 031103
RWRCTP

REGIONAL WEATHER ROUNDUP
NATIONAL WEATHER SERVICE STATE COLLEGE PA
700 AM EDT THU SEP 03 2015

Note: "fair" indicates few or no clouds below 12,000 feet with no
significant weather and/or obstructions to visibility.

* = STATION THAT DOES NOT REPORT PRECIPITATION /E.G. RAIN...SNOW...ETC/
    THUNDER OR FOG.

PAZ002>004-007>009-013>016-020>023-029>032-031200-
WESTERN PENNSYLVANIA

CITY           SKY/WX    TMP DP  RH WIND       PRES   REMARKS
ERIE           PTCLDY    70  66  87 S6        29.97R
MEADVILLE      PTCLDY    67  64  90 CALM      30.01R FOG
FRANKLIN*      CLOUDY    64  61  88 SW5       30.03R VSB 1/4
NEW CASTLE     FOG       65  65 100 CALM      30.01R VSB 1
BEAVER COUNTY  MOCLDY    68  66  94 W3        30.00  FOG
BUTLER*          N/A     64  63  94 CALM      30.02R VSB 1/4
PITTSBURGH INT MOCLDY    69  64  84 W7        30.00R
PITTSBURGH     CLEAR     68  63  84 SW6       30.00R HAZE
INDIANA*       CLEAR     66  64  94 CALM      30.04R FOG
LATROBE        PTCLDY    66  66 100 W6        30.01
WASHINGTON CO* CLEAR     64  64 100 CALM      30.02R
$$

PAZ004>006-010>012-017>019-024>028-033>037-041-042-045-046-049>053-031200-
CENTRAL PENNSYLVANIA

CITY           SKY/WX    TMP DP  RH WIND       PRES   REMARKS
BRADFORD       FOG       55  54  96 CALM      30.03R VSB<1/4
DUBOIS         FOG       63  61  93 CALM      30.01R VSB<1/4
CLEARFIELD     FOG       65  64  97 SW3       30.01R VSB 1/4
JOHNSTOWN      PTCLDY    64  61  90 SW6       30.04R FOG
ALTOONA        CLEAR     64  62  93 CALM      30.01R FOG
STATE COLLEGE  CLEAR     64  64 100 CALM      29.98R
WILLIAMSPORT   CLOUDY    68  65  90 N3        29.94R FOG
SELINSGROVE    CLEAR     63  62  97 CALM      29.94R FOG
FT INDIANTOWN  PTCLDY    66  65  96 CALM      29.93R
CAPITAL CITY   CLEAR     70  65  84 W5        29.92R HAZE
HARRISBURG     PTCLDY    72  66  81 NW8       29.91S HAZE
YORK           CLEAR     64  62  93 CALM      29.93R FOG
$$

PAZ038>040-043-044-047-048-054-055-060>062-067>071-031200-
EASTERN PENNSYLVANIA

CITY           SKY/WX    TMP DP  RH WIND       PRES   REMARKS
SCRANTON       CLEAR     65  61  87 SE5       29.95R FOG
MOUNT POCONO   CLEAR     67  64  90 NW3       29.98R FOG
ALLENTOWN      CLEAR     66  63  90 CALM      29.91R FOG
QUAKERTOWN*    SUNNY     63  63 100 CALM      29.92S
READING        CLEAR     68  64  87 CALM      29.91R
LANCASTER      CLEAR     67  65  93 W3        29.93R FOG
COATESVILLE    MOSUNNY   68  68 100 NW3       29.93S FOG
POTTSTOWN      CLEAR     67  65  93 CALM      29.92S FOG
BLUE BELL        N/A     64  64 100 CALM      29.90R
DOYLESTOWN     CLEAR     66  64  93 CALM      29.90R
WILLOW GROVE   NOT AVBL
NORTH PHILA    PTCLDY    72  63  73 CALM      29.90R HAZE
PHILADELPHIA   PTCLDY    77  64  64 CALM      29.89S
$$


USA.gov is the U.S. government's official web portal to all federal, state and local government web resources and services.